Olathe, KS

7:06 PM CST on January 22, 2017 (GMT -0600)
Johnson County Executive

Weather History for KOJC - August, 2013

Change the Weather History Date:

Monday, August 26, 2013

  Actual Average Record
Temperature  
Mean Temperature 82 °F 76 °F  
Max Temperature 93 °F 86 °F 102 °F (2003)
Min Temperature 71 °F 66 °F 55 °F (1985)
Degree Days  
Heating Degree Days 0 0  
Month to date heating degree days 0 0  
Since 1 June heating degree days 14 8  
Since 1 July heating degree days 0 0  
Cooling Degree Days 17 11  
Month to date cooling degree days 254 342  
Year to date cooling degree days 1024 1114  
Since 1 June cooling degree days 923 1010  
Growing Degree Days 31 (Base 50)    
Moisture  
Dew Point 69 °F    
Average Humidity 67    
Maximum Humidity 90    
Minimum Humidity 44    
Precipitation  
Precipitation 0.00 in 0.15 in 1.85 in (1975)
Month to date precipitation 2.67 3.01  
Year to date precipitation 26.50 27.25  
Sea Level Pressure  
Sea Level Pressure 30.09 in    
Wind  
Wind Speed 8 mph (SSW)    
Max Wind Speed 15 mph    
Max Gust Speed 22 mph    
Visibility 10 miles    
Events      
T = Trace of Precipitation, MM = Missing Value Source: NWS Daily Summary

Daily Weather History Graph

Daily Weather History Graph

Search for Another Location

Airport or City:

Trip Planner

Search our weather history database for the weather conditions in past years. The results will help you decide how hot, cold, wet, or windy it might be!

Date:

Astronomy

Aug. 26, 2013 Rise Set
Actual Time 6:42 AM CDT 7:57 PM CDT
Civil Twilight 6:15 AM CDT 8:25 PM CDT
Nautical Twilight 5:42 AM CDT 8:58 PM CDT
Astronomical Twilight 5:07 AM CDT 9:32 PM CDT
Moon 11:13 PM CDT (8/26) 12:41 PM CDT (8/26)
Length of Visible Light 14h 10m
Length of Day
13h 15m
Waning Gibbous, 66% of the Moon is Illuminated
Aug 26
Waning Gibbous
Aug 28
Last Quarter
Sep 5
New
Sep 12
First Quarter
Sep 19
Full

Hourly Weather History & Observations

Time (CDT) Temp. Heat Index Dew Point Humidity Pressure Visibility Wind Dir Wind Speed Gust Speed Precip Events Conditions
12:53 AM 73.9 °F - 69.1 °F 85% 30.13 in 9.0 mi South 5.8 mph - N/A   Clear
1:53 AM 73.9 °F - 68.0 °F 82% 30.12 in 9.0 mi South 4.6 mph - N/A   Clear
2:53 AM 73.9 °F - 68.0 °F 82% 30.12 in 9.0 mi South 4.6 mph - N/A   Clear
3:53 AM 73.0 °F - 68.0 °F 84% 30.12 in 10.0 mi South 5.8 mph - N/A   Clear
4:53 AM 73.0 °F - 68.0 °F 84% 30.12 in 9.0 mi South 5.8 mph - N/A   Clear
5:53 AM 72.0 °F - 68.0 °F 87% 30.12 in 9.0 mi South 4.6 mph - N/A   Clear
6:53 AM 71.1 °F - 68.0 °F 90% 30.13 in 7.0 mi South 4.6 mph - N/A   Clear
7:53 AM 73.9 °F - 69.1 °F 85% 30.14 in 7.0 mi South 4.6 mph - N/A   Clear
8:53 AM 78.1 °F - 70.0 °F 76% 30.14 in 10.0 mi SSW 8.1 mph 17.3 mph N/A   Clear
9:53 AM 82.0 °F 85.9 °F 70.0 °F 67% 30.15 in 10.0 mi SSW 9.2 mph 18.4 mph N/A   Clear
10:53 AM 84.9 °F 89.4 °F 70.0 °F 61% 30.14 in 10.0 mi SW 10.4 mph 17.3 mph N/A   Clear
11:53 AM 87.1 °F 90.6 °F 68.0 °F 53% 30.14 in 10.0 mi WSW 13.8 mph 20.7 mph N/A   Clear
12:53 PM 89.1 °F 92.9 °F 68.0 °F 50% 30.12 in 10.0 mi SW 11.5 mph 18.4 mph N/A   Clear
1:53 PM 91.0 °F 95.6 °F 69.1 °F 48% 30.09 in 10.0 mi SW 11.5 mph - N/A   Clear
2:53 PM 91.9 °F 95.4 °F 66.9 °F 44% 30.08 in 10.0 mi SW 12.7 mph - N/A   Clear
3:53 PM 90.0 °F 92.8 °F 66.9 °F 46% 30.06 in 10.0 mi SW 10.4 mph 20.7 mph N/A   Scattered Clouds
4:53 PM 89.1 °F 92.9 °F 68.0 °F 50% 30.05 in 10.0 mi SSW 11.5 mph 17.3 mph N/A   Partly Cloudy
5:53 PM 88.0 °F 92.1 °F 69.1 °F 53% 30.05 in 10.0 mi SSW 10.4 mph - N/A   Clear
6:53 PM 87.1 °F 92.0 °F 70.0 °F 57% 30.04 in 10.0 mi SSW 6.9 mph - N/A   Clear
7:53 PM 84.0 °F 88.4 °F 70.0 °F 63% 30.04 in 10.0 mi South 5.8 mph - N/A   Clear
8:53 PM 81.0 °F 84.4 °F 70.0 °F 69% 30.05 in 10.0 mi South 4.6 mph - N/A   Clear
9:53 PM 80.1 °F 83.2 °F 70.0 °F 71% 30.05 in 10.0 mi South 6.9 mph - N/A   Clear
10:53 PM 79.0 °F - 70.0 °F 74% 30.04 in 10.0 mi SSW 6.9 mph - N/A   Clear
11:53 PM 77.0 °F - 70.0 °F 79% 30.04 in 10.0 mi SSW 5.8 mph - N/A   Clear